Location: Beccas
(43.4309°N, 0.1528°E)
Time: 00:04:56
(UTC+00:00)

Cosmos 1703 - Pass Details

Date: 30 May 2022
Orbit: 518 x 535 km, 82.5° (Epoch: 01 July)

Event Time Altitude Azimuth Distance (km) Brightness Sun altitude
Exits shadow 00:51:41 12° 102° (ESE) 1,679 5.8 -23.6°
Maximum altitude 00:52:44 13° 85° (E) 1,616 5.9 -23.6°
Drops below altitude 10° 00:54:31 10° 58° (ENE) 1,791 6.5 -23.5°
Sets 00:57:42 0° 30° (NNE) 2,684 8.1 -23.3°
